User: anonymous   Login
Location: Unspecified
(0.0000°N, 0.0000°E)
Time: 09:17:11
(UTC+00:00)
Language:

NAVSTAR 65 (USA 213) - Orbit

View from above orbital plane
View from above orbital plane
View from above satellite
View from above satellite

Ground track
Ground track

The orbit data is extracted from the following two-line orbital elements,

1 36585U 10022A   17230.72368556 -.00000085 +00000-0 +00000-0 0  9991
2 36585 055.9576 338.1481 0063908 046.2946 012.6529 02.00552774052926
Epoch (UTC): 18 August 2017 17:22:06
Eccentricity: 0.0063908
inclination: 55.9576°
perigee height: 20013 km
apogee height: 20353 km
right ascension of ascending node: 338.1481°
argument of perigee: 46.2946°
revolutions per day: 2.00552774
mean anomaly at epoch: 12.6529°
orbit number at epoch: 5292

The dashed part of the orbit path shows where the satellite is in the earth's shadow,  

DLR